Regional Weather Roundup
Issued by NWS Cleveland, OH

Home | Current Version | Previous Version | Graphics & Text | Print | Product List | Glossary On
Versions: 1 2 3 4 5 6 7 8 9 10 11 12 13 14 15 16 17 18 19 20 21 22 23 24 25 26 27 28 29 30 31 32 33 34 35 36 37 38 39 40 41 42 43 44 45 46 47 48 49 50
000
ASUS41 KCLE 211510
RWRCLE
OHIO REGIONAL WEATHER ROUNDUP
NATIONAL WEATHER SERVICE CLEVELAND, OH
1100 AM EDT SUN SEP 21 2014

NOTE: "FAIR" INDICATES FEW OR NO CLOUDS BELOW 12,000 FEET WITH NO
SIGNIFICANT WEATHER AND/OR OBSTRUCTIONS TO VISIBILITY.

OHZ001>008-015>018-024>027-034-035-043-044-211600-
   NORTHWEST OHIO

CITY           SKY/WX    TMP DP  RH WIND       PRES   REMARKS
DEFIANCE       PTSUNNY  N/A N/A N/A W12G17    29.76S
FINDLAY        MOSUNNY   69  57  65 W15       29.75S
TOLEDO EXPRESS MOSUNNY   67  54  63 W23G30    29.73R
TOLEDO EXEC    MOSUNNY   68  54  60 W22G30    29.73R
LIMA           SUNNY     69  55  60 W17G29    29.79S
$$

OHZ009>014-019>023-028>033-038-089-211600-
   NORTHEAST OHIO

CITY           SKY/WX    TMP DP  RH WIND       PRES   REMARKS
CLE-HOPKINS    MOSUNNY   72  62  71 W20       29.72R
CLE-LAKEFRONT  MOSUNNY   71  61  70 W23G29    29.67S
CUY CO. ARPT   PTSUNNY   72  68  88 W18G25    29.71R
LORAIN-ELYRIA  SUNNY     73  60  63 W17G25    29.72R
ASHTABULA      PTSUNNY   71  62  73 W16G23    29.69F
AKRON-CANTON   LGT RAIN  74  64  71 SW20      29.72F
WOOSTER        MOSUNNY   77  61  57 W13G23    29.74S
MANSFIELD      MOSUNNY   73  59  61 W15G25    29.75F
YOUNGSTOWN     PTSUNNY   72  65  78 SW15G22   29.72F
$$

OHZ042-051>053-060>062-070>072-077>081-211600-
  SOUTHWEST OHIO

CITY           SKY/WX    TMP DP  RH WIND       PRES   REMARKS
CINC-COVINGTON PTSUNNY   75  64  68 W20       29.86R
CINC-LUNKEN    PTSUNNY   77  65  66 W13       29.84R
HAMILTON       PTSUNNY   75  63  66 W14G25    29.84R
DAYTON         MOSUNNY   73  59  61 NW22G29   29.83R
WRIGHT-PAT AFB MOSUNNY   73  62  67 W20G28    29.81R
DAYTON GENERAL PTSUNNY   74  63  68 W16G23    29.82R
WILMINGTON     PTSUNNY   75  64  68 W14       29.82S
$$

OHZ036-037-039>041-045>050-054>059-063>069-073>076-082>088-211600-
  CENTRAL AND SOUTHEAST OHIO

CITY           SKY/WX    TMP DP  RH WIND       PRES   REMARKS
COLUMBUS       PTSUNNY   78  63  59 W16       29.77F
OSU AIRPORT    MOSUNNY   76  62  62 W17G25    29.77S
BOLTON FIELD   NOT AVBL
RICKENBACK AFB PTSUNNY   75  65  70 W16G24    29.79R
NEWARK         PTSUNNY   76  65  68 SW12G20   29.77S
MARION         MOSUNNY   72  58  61 W23G32    29.76F
LANCASTER      PTSUNNY   76  66  71 W14G21    29.79F
ZANESVILLE     CLOUDY    73  64  73 SW9       29.79S
NEW PHILLY     MOSUNNY   75  65  70 SW10G18   29.76F
$$



USA.gov is the U.S. government's official web portal to all federal, state and local government web resources and services.